AZU7445 SBTE-SBSL

Flight info

Callsign AZU7445
Flight time 0h 55m
Altitude 20000
Route ESTEP UZ20 ELIET
Aircraft AT76/M-SDFGIRY/S

Departure

Time 2026-04-26 15:19
Airport Senador Petrônio Portela Airport (SBTE)

Arrival

Time 2026-04-26 16:15
Airport Marechal Cunha Machado International Airport (SBSL)
Time Latitude Longitude Altitude Speed Heading
2026-04-26 15:09 -5.06415 -42.82165 238 ft 0 kts 120°
2026-04-26 15:12 -5.06409 -42.82176 219 ft 2 kts 119°
2026-04-26 15:12 -5.06401 -42.82192 214 ft 2 kts 94°
2026-04-26 15:12 -5.06405 -42.82207 214 ft 2 kts 15°
2026-04-26 15:13 -5.06409 -42.82208 215 ft 0 kts 358°
2026-04-26 15:13 -5.06408 -42.82208 215 ft 0 kts 358°
2026-04-26 15:14 -5.06385 -42.82215 214 ft 7 kts 329°
2026-04-26 15:14 -5.06367 -42.82255 212 ft 0 kts 267°
2026-04-26 15:15 -5.06367 -42.82258 212 ft 2 kts 267°
2026-04-26 15:15 -5.06368 -42.82304 213 ft 10 kts 285°
2026-04-26 15:15 -5.06299 -42.82342 213 ft 15 kts 355°
2026-04-26 15:15 -5.06167 -42.82356 220 ft 23 kts 353°
2026-04-26 15:16 -5.06048 -42.82368 211 ft 27 kts 351°
2026-04-26 15:16 -5.05857 -42.82389 212 ft 29 kts 354°
2026-04-26 15:16 -5.05644 -42.82412 215 ft 33 kts 353°
2026-04-26 15:16 -5.05423 -42.82433 211 ft 27 kts 355°
2026-04-26 15:17 -5.05223 -42.82455 215 ft 31 kts 353°
2026-04-26 15:17 -5.05103 -42.82460 211 ft 16 kts 15°
2026-04-26 15:17 -5.05049 -42.82472 211 ft 4 kts 207°
2026-04-26 15:17 -5.05063 -42.82472 214 ft 0 kts 175°
2026-04-26 15:18 -5.05090 -42.82470 213 ft 23 kts 174°
2026-04-26 15:18 -5.05457 -42.82432 211 ft 82 kts 174°
2026-04-26 15:18 -5.06190 -42.82359 225 ft 128 kts 174°
2026-04-26 15:19 -5.07143 -42.82250 539 ft 138 kts 168°
2026-04-26 15:19 -5.08096 -42.82120 1053 ft 138 kts 173°
2026-04-26 15:19 -5.09084 -42.82013 1368 ft 142 kts 173°
2026-04-26 15:19 -5.10148 -42.81920 1359 ft 166 kts 172°
2026-04-26 15:20 -5.11354 -42.81812 1505 ft 178 kts 172°
2026-04-26 15:20 -5.12585 -42.81697 1881 ft 175 kts 172°
2026-04-26 15:20 -5.13793 -42.81579 2243 ft 177 kts 172°
2026-04-26 15:20 -5.15034 -42.81711 2524 ft 182 kts 207°
2026-04-26 15:21 -5.15808 -42.82714 2915 ft 189 kts 255°
2026-04-26 15:21 -5.15688 -42.84035 3391 ft 191 kts 287°
2026-04-26 15:21 -5.15256 -42.85334 3845 ft 195 kts 286°
2026-04-26 15:21 -5.14910 -42.86663 4252 ft 194 kts 281°
2026-04-26 15:22 -5.14709 -42.87939 4601 ft 195 kts 274°
2026-04-26 15:22 -5.14630 -42.89331 4960 ft 195 kts 270°
2026-04-26 15:22 -5.14642 -42.90686 5285 ft 197 kts 266°
2026-04-26 15:22 -5.14720 -42.92042 5604 ft 197 kts 264°
2026-04-26 15:23 -5.14832 -42.93419 5907 ft 199 kts 263°
2026-04-26 15:23 -5.14957 -42.94797 6196 ft 199 kts 263°
2026-04-26 15:23 -5.15101 -42.96188 6503 ft 200 kts 262°
2026-04-26 15:23 -5.15260 -42.97582 6768 ft 201 kts 262°
2026-04-26 15:24 -5.15418 -42.98983 7061 ft 202 kts 262°
2026-04-26 15:24 -5.15573 -43.00387 7357 ft 203 kts 262°
2026-04-26 15:24 -5.15720 -43.01798 7643 ft 204 kts 263°
2026-04-26 15:24 -5.15736 -43.03212 7867 ft 206 kts 286°
2026-04-26 15:25 -5.14915 -43.04375 8142 ft 204 kts 324°
2026-04-26 15:25 -5.14127 -43.04889 8330 ft 204 kts 332°
2026-04-26 15:25 -5.12387 -43.05634 8698 ft 203 kts 345°
2026-04-26 15:25 -5.11015 -43.05960 8975 ft 203 kts 351°
2026-04-26 15:26 -5.09617 -43.06176 9275 ft 203 kts 354°
2026-04-26 15:26 -5.08219 -43.06361 9550 ft 203 kts 354°
2026-04-26 15:26 -5.06821 -43.06558 9811 ft 203 kts 353°
2026-04-26 15:26 -5.05417 -43.06764 10044 ft 204 kts 353°
2026-04-26 15:27 -5.04013 -43.06980 10261 ft 205 kts 352°
2026-04-26 15:27 -5.03064 -43.07134 10419 ft 205 kts 351°
2026-04-26 15:27 -5.01634 -43.07374 10644 ft 205 kts 352°
2026-04-26 15:27 -5.00221 -43.07602 10869 ft 206 kts 352°
2026-04-26 15:28 -4.98799 -43.07828 11093 ft 207 kts 352°
2026-04-26 15:28 -4.97373 -43.08055 11317 ft 208 kts 352°
2026-04-26 15:28 -4.95904 -43.08288 11524 ft 208 kts 352°
2026-04-26 15:28 -4.94468 -43.08516 11749 ft 209 kts 352°
2026-04-26 15:29 -4.93005 -43.08748 11953 ft 210 kts 352°
2026-04-26 15:29 -4.91562 -43.08979 12160 ft 210 kts 352°
2026-04-26 15:29 -4.88640 -43.09441 12576 ft 212 kts 351°
2026-04-26 15:30 -4.85716 -43.09907 12965 ft 213 kts 351°
2026-04-26 15:30 -4.84247 -43.10140 13148 ft 214 kts 352°
2026-04-26 15:30 -4.82758 -43.10376 13330 ft 214 kts 351°
2026-04-26 15:31 -4.81281 -43.10611 13510 ft 215 kts 352°
2026-04-26 15:31 -4.78312 -43.11082 13831 ft 216 kts 351°
2026-04-26 15:31 -4.76803 -43.11322 13972 ft 217 kts 351°
2026-04-26 15:32 -4.74324 -43.11715 14258 ft 217 kts 351°
2026-04-26 15:32 -4.72323 -43.12031 14484 ft 218 kts 351°
2026-04-26 15:32 -4.70822 -43.12270 14645 ft 218 kts 351°
2026-04-26 15:33 -4.69321 -43.12508 14803 ft 219 kts 351°
2026-04-26 15:33 -4.67816 -43.12747 14951 ft 219 kts 352°
2026-04-26 15:33 -4.66307 -43.12986 15100 ft 220 kts 352°
2026-04-26 15:33 -4.64823 -43.13219 15243 ft 220 kts 352°
2026-04-26 15:34 -4.63281 -43.13463 15394 ft 221 kts 352°
2026-04-26 15:34 -4.61763 -43.13703 15540 ft 221 kts 352°
2026-04-26 15:34 -4.60242 -43.13945 15676 ft 221 kts 352°
2026-04-26 15:34 -4.58720 -43.14187 15812 ft 221 kts 352°
2026-04-26 15:35 -4.57196 -43.14430 15932 ft 222 kts 352°
2026-04-26 15:35 -4.55664 -43.14670 16064 ft 223 kts 352°
2026-04-26 15:35 -4.54137 -43.14914 16188 ft 223 kts 352°
2026-04-26 15:35 -4.52600 -43.15159 16332 ft 224 kts 352°
2026-04-26 15:36 -4.51062 -43.15404 16482 ft 224 kts 352°
2026-04-26 15:36 -4.49517 -43.15651 16625 ft 225 kts 351°
2026-04-26 15:36 -4.47991 -43.15975 16746 ft 225 kts 339°
2026-04-26 15:36 -4.46603 -43.16709 16845 ft 226 kts 329°
2026-04-26 15:37 -4.45271 -43.17553 16974 ft 227 kts 328°
2026-04-26 15:37 -4.43930 -43.18401 17099 ft 228 kts 329°
2026-04-26 15:37 -4.42575 -43.19219 17263 ft 227 kts 330°
2026-04-26 15:37 -4.41240 -43.20011 17514 ft 218 kts 330°
2026-04-26 15:38 -4.39895 -43.20779 17812 ft 225 kts 332°
2026-04-26 15:38 -4.38565 -43.21507 18154 ft 228 kts 332°
2026-04-26 15:38 -4.37173 -43.22274 18520 ft 229 kts 332°
2026-04-26 15:38 -4.35746 -43.23075 18881 ft 228 kts 332°
2026-04-26 15:39 -4.34370 -43.23858 19242 ft 227 kts 332°
2026-04-26 15:39 -4.33025 -43.24629 19598 ft 226 kts 332°
2026-04-26 15:39 -4.31683 -43.25406 19820 ft 233 kts 332°
2026-04-26 15:39 -4.31174 -43.25700 19848 ft 237 kts 332°
2026-04-26 15:40 -4.28703 -43.27120 19913 ft 252 kts 332°
2026-04-26 15:40 -4.27159 -43.27998 19924 ft 251 kts 332°
2026-04-26 15:40 -4.25616 -43.28879 19941 ft 252 kts 332°
2026-04-26 15:40 -4.24090 -43.29754 19942 ft 253 kts 332°
2026-04-26 15:41 -4.22568 -43.30631 19945 ft 253 kts 332°
2026-04-26 15:41 -4.21561 -43.31213 19934 ft 254 kts 332°
2026-04-26 15:41 -4.20003 -43.32116 19943 ft 254 kts 332°
2026-04-26 15:41 -4.18446 -43.33010 19942 ft 255 kts 332°
2026-04-26 15:42 -4.16847 -43.33927 19943 ft 254 kts 332°
2026-04-26 15:42 -4.15302 -43.34812 19930 ft 252 kts 332°
2026-04-26 15:42 -4.13734 -43.35710 19943 ft 250 kts 332°
2026-04-26 15:42 -4.12228 -43.36570 19940 ft 249 kts 332°
2026-04-26 15:43 -4.10690 -43.37447 19942 ft 248 kts 332°
2026-04-26 15:43 -4.09169 -43.38318 19939 ft 248 kts 332°
2026-04-26 15:43 -4.06128 -43.40054 19943 ft 251 kts 332°
2026-04-26 15:44 -4.04624 -43.40917 19942 ft 252 kts 332°
2026-04-26 15:44 -4.01545 -43.42679 19939 ft 254 kts 332°
2026-04-26 15:44 -3.99989 -43.43569 19941 ft 254 kts 332°
2026-04-26 15:45 -3.96905 -43.45335 19942 ft 256 kts 332°
2026-04-26 15:45 -3.95361 -43.46224 19941 ft 256 kts 332°
2026-04-26 15:46 -3.92261 -43.47999 19940 ft 257 kts 332°
2026-04-26 15:46 -3.90686 -43.48897 19945 ft 257 kts 332°
2026-04-26 15:46 -3.89084 -43.49811 19926 ft 258 kts 332°
2026-04-26 15:46 -3.88557 -43.50112 19938 ft 258 kts 332°
2026-04-26 15:47 -3.85990 -43.51586 19935 ft 259 kts 332°
2026-04-26 15:47 -3.82837 -43.53391 19945 ft 259 kts 332°
2026-04-26 15:47 -3.81288 -43.54275 19931 ft 259 kts 332°
2026-04-26 15:48 -3.79719 -43.55178 19932 ft 259 kts 332°
2026-04-26 15:48 -3.78156 -43.56073 19933 ft 259 kts 332°
2026-04-26 15:48 -3.76570 -43.56983 19929 ft 259 kts 332°
2026-04-26 15:48 -3.75008 -43.57878 19936 ft 259 kts 332°
2026-04-26 15:49 -3.73464 -43.58766 19940 ft 259 kts 332°
2026-04-26 15:49 -3.71884 -43.59667 19934 ft 258 kts 332°
2026-04-26 15:49 -3.70343 -43.60552 19943 ft 258 kts 332°
2026-04-26 15:49 -3.68767 -43.61454 19940 ft 258 kts 332°
2026-04-26 15:50 -3.67203 -43.62348 19940 ft 258 kts 332°
2026-04-26 15:50 -3.66154 -43.62949 19941 ft 258 kts 332°
2026-04-26 15:50 -3.64595 -43.63846 19939 ft 258 kts 332°
2026-04-26 15:50 -3.63033 -43.64730 19937 ft 258 kts 333°
2026-04-26 15:51 -3.61439 -43.65626 19934 ft 258 kts 332°
2026-04-26 15:51 -3.59875 -43.66512 19942 ft 259 kts 332°
2026-04-26 15:51 -3.58296 -43.67417 19935 ft 258 kts 332°
2026-04-26 15:51 -3.56733 -43.68314 19933 ft 258 kts 332°
2026-04-26 15:52 -3.55171 -43.69203 19941 ft 258 kts 332°
2026-04-26 15:52 -3.53589 -43.70104 19940 ft 258 kts 332°
2026-04-26 15:52 -3.52026 -43.70993 19931 ft 258 kts 332°
2026-04-26 15:52 -3.50970 -43.71594 19940 ft 258 kts 332°
2026-04-26 15:53 -3.48855 -43.72799 19930 ft 258 kts 332°
2026-04-26 15:53 -3.47264 -43.73704 19942 ft 258 kts 332°
2026-04-26 15:53 -3.45695 -43.74594 19809 ft 264 kts 332°
2026-04-26 15:53 -3.44075 -43.75505 19514 ft 270 kts 332°
2026-04-26 15:54 -3.42369 -43.76448 19202 ft 270 kts 332°
2026-04-26 15:54 -3.40678 -43.77389 18898 ft 269 kts 332°
2026-04-26 15:54 -3.39048 -43.78316 18600 ft 269 kts 331°
2026-04-26 15:54 -3.37843 -43.79002 18392 ft 268 kts 331°
2026-04-26 15:55 -3.36154 -43.79964 18071 ft 268 kts 331°
2026-04-26 15:55 -3.34402 -43.80962 17704 ft 268 kts 331°
2026-04-26 15:55 -3.32716 -43.81922 17362 ft 267 kts 331°
2026-04-26 15:55 -3.31028 -43.82881 17027 ft 267 kts 331°
2026-04-26 15:56 -3.29426 -43.83794 16702 ft 266 kts 331°
2026-04-26 15:56 -3.27788 -43.84726 16378 ft 266 kts 331°
2026-04-26 15:56 -3.26187 -43.85636 16067 ft 266 kts 331°
2026-04-26 15:56 -3.24551 -43.86566 15749 ft 264 kts 331°
2026-04-26 15:57 -3.22968 -43.87467 15438 ft 261 kts 331°
2026-04-26 15:57 -3.21399 -43.88359 15141 ft 258 kts 330°
2026-04-26 15:57 -3.19819 -43.89259 14843 ft 256 kts 330°
2026-04-26 15:57 -3.18813 -43.89831 14655 ft 255 kts 330°
2026-04-26 15:58 -3.16737 -43.91023 14261 ft 250 kts 326°
2026-04-26 15:58 -3.15442 -43.92204 13980 ft 248 kts 313°
2026-04-26 15:58 -3.14670 -43.93052 13800 ft 247 kts 312°
2026-04-26 15:58 -3.13664 -43.94172 13539 ft 241 kts 312°
2026-04-26 15:59 -3.12563 -43.95353 13236 ft 222 kts 314°
2026-04-26 15:59 -3.11498 -43.96434 12950 ft 210 kts 315°
2026-04-26 15:59 -3.10529 -43.97388 12724 ft 203 kts 316°
2026-04-26 15:59 -3.09498 -43.98406 12466 ft 207 kts 316°
2026-04-26 16:00 -3.08469 -43.99427 12219 ft 211 kts 315°
2026-04-26 16:00 -3.07395 -44.00488 11964 ft 214 kts 315°
2026-04-26 16:00 -3.06317 -44.01557 11704 ft 217 kts 315°
2026-04-26 16:00 -3.05221 -44.02645 11458 ft 219 kts 317°
2026-04-26 16:01 -3.04136 -44.03717 11173 ft 221 kts 316°
2026-04-26 16:01 -3.02948 -44.04868 10896 ft 223 kts 316°
2026-04-26 16:01 -3.01882 -44.05910 10647 ft 223 kts 316°
2026-04-26 16:01 -3.00803 -44.06973 10393 ft 209 kts 315°
2026-04-26 16:02 -3.00082 -44.07691 10227 ft 201 kts 315°
2026-04-26 16:02 -2.99410 -44.08362 10063 ft 194 kts 315°
2026-04-26 16:02 -2.98679 -44.09092 9891 ft 191 kts 315°
2026-04-26 16:02 -2.98055 -44.09716 9740 ft 191 kts 315°
2026-04-26 16:03 -2.96784 -44.10983 9409 ft 191 kts 316°
2026-04-26 16:03 -2.95844 -44.11918 9169 ft 191 kts 316°
2026-04-26 16:03 -2.95210 -44.12547 9009 ft 190 kts 316°
2026-04-26 16:03 -2.94290 -44.13461 8755 ft 190 kts 316°
2026-04-26 16:04 -2.93345 -44.14404 8406 ft 190 kts 316°
2026-04-26 16:04 -2.92473 -44.15283 8098 ft 190 kts 316°
2026-04-26 16:04 -2.91506 -44.16249 7743 ft 190 kts 316°
2026-04-26 16:04 -2.90565 -44.17182 7427 ft 190 kts 317°
2026-04-26 16:05 -2.89628 -44.18112 7089 ft 189 kts 317°
2026-04-26 16:05 -2.88727 -44.19002 6756 ft 188 kts 316°
2026-04-26 16:05 -2.87776 -44.19943 6438 ft 188 kts 317°
2026-04-26 16:05 -2.86853 -44.20859 6035 ft 187 kts 317°
2026-04-26 16:06 -2.85921 -44.21785 5635 ft 185 kts 317°
2026-04-26 16:06 -2.85008 -44.22691 5234 ft 184 kts 317°
2026-04-26 16:06 -2.84101 -44.23590 4858 ft 183 kts 316°
2026-04-26 16:06 -2.83206 -44.24474 4484 ft 181 kts 316°
2026-04-26 16:07 -2.82315 -44.25359 4169 ft 181 kts 317°
2026-04-26 16:07 -2.81420 -44.26248 3846 ft 181 kts 317°
2026-04-26 16:07 -2.80561 -44.27100 3708 ft 179 kts 316°
2026-04-26 16:07 -2.79692 -44.27958 3590 ft 182 kts 317°
2026-04-26 16:08 -2.78734 -44.28901 3463 ft 168 kts 317°
2026-04-26 16:08 -2.78169 -44.29457 3391 ft 162 kts 317°
2026-04-26 16:08 -2.77132 -44.30471 3245 ft 155 kts 317°
2026-04-26 16:08 -2.76359 -44.31230 3139 ft 151 kts 317°
2026-04-26 16:09 -2.75842 -44.31750 3068 ft 149 kts 317°
2026-04-26 16:09 -2.75103 -44.32488 2983 ft 152 kts 317°
2026-04-26 16:09 -2.74317 -44.33264 2853 ft 155 kts 317°
2026-04-26 16:09 -2.73544 -44.34012 2745 ft 155 kts 321°
2026-04-26 16:10 -2.72541 -44.34298 2619 ft 149 kts 15°
2026-04-26 16:10 -2.71575 -44.33833 2490 ft 146 kts 32°
2026-04-26 16:10 -2.70723 -44.33274 2390 ft 147 kts 37°
2026-04-26 16:10 -2.69870 -44.32623 2271 ft 148 kts 39°
2026-04-26 16:11 -2.69022 -44.31932 2140 ft 138 kts 41°
2026-04-26 16:11 -2.68381 -44.31399 2053 ft 120 kts 41°
2026-04-26 16:11 -2.67748 -44.30885 1979 ft 113 kts 43°
2026-04-26 16:11 -2.67137 -44.30376 1887 ft 120 kts 41°
2026-04-26 16:12 -2.66501 -44.29867 1891 ft 123 kts 41°
2026-04-26 16:12 -2.65797 -44.29301 1803 ft 130 kts 41°
2026-04-26 16:12 -2.64505 -44.28255 1460 ft 141 kts 41°
2026-04-26 16:13 -2.63772 -44.27647 1262 ft 134 kts 39°
2026-04-26 16:13 -2.63043 -44.27040 1081 ft 129 kts 41°
2026-04-26 16:13 -2.62364 -44.26485 930 ft 122 kts 41°
2026-04-26 16:13 -2.61716 -44.25956 782 ft 119 kts 40°
2026-04-26 16:14 -2.61028 -44.25398 628 ft 119 kts 40°
2026-04-26 16:14 -2.60355 -44.24849 397 ft 119 kts 40°
2026-04-26 16:14 -2.59204 -44.23937 157 ft 51 kts 38°
2026-04-26 16:15 -2.59102 -44.23856 157 ft 34 kts 39°
2026-04-26 16:15 -2.58986 -44.23764 158 ft 25 kts 38°
2026-04-26 16:15 -2.58856 -44.23659 159 ft 22 kts 39°
2026-04-26 16:16 -2.58556 -44.23420 160 ft 29 kts 39°
2026-04-26 16:16 -2.58442 -44.23458 159 ft 19 kts 272°
2026-04-26 16:16 -2.58473 -44.23551 160 ft 25 kts 250°
2026-04-26 16:16 -2.58534 -44.23722 160 ft 14 kts 262°
2026-04-26 16:17 -2.58495 -44.23765 160 ft 7 kts 342°
2026-04-26 16:17 -2.58479 -44.23771 160 ft 0 kts 340°